[[{"header":{"parameterUnit":"m.s-1","parameterCategory":1,"la1":30.2991,"la2":30.254,"lo1":-89.0895,"lo2":-89.0444,"dy":0.0017,"dx":0.0017,"nx":28,"ny":28,"refTime":"2025-12-10T09:00:00:Z","depth":0,"parameterNumber":2,"parameterNumberName":"U-component_of_WINDS"},"data":[0,0,0,0,0,0,0,0,0,0,0,0,0,0,0,0,0,0,0,0,0,0,0,0,0,0,0,0,0,0,0,0,0,0,0,0,0,0,0,0,0,0,0,0,0,0,0,0,0,0,0,0,0,0,0,0,0,0,3.7845,3.7847,0,3.7995,3.7997,3.7999,3.7979,3.7976,3.7974,3.7972,3.8127,3.8133,3.8139,0,0,0,0,0,0,0,0,0,0,0,0,0,3.7544,3.7549,3.7845,3.7847,3.7849,3.7995,3.7997,3.7999,3.7979,3.7976,3.7973,3.797,3.8125,3.8132,3.814,0,0,0,0,0,0,0,0,0,0,0,0,0,3.7682,3.7551,3.7845,3.7857,3.7859,3.7995,3.7997,3.8,3.798,3.7976,3.7972,3.7969,3.8122,3.8131,3.8141,3.8275,0,0,3.8171,3.8175,0,0,0,0,0,0,0,0,3.7674,3.7693,3.7853,3.7856,3.7859,3.7965,3.7948,3.8092,3.7981,3.7934,3.7972,3.7967,3.8076,3.8089,3.8125,3.8282,3.8289,3.8171,3.8177,3.8181,3.8184,0,0,0,0,0,0,0,3.7665,3.7687,3.7905,3.7855,3.7859,3.7855,3.7871,3.7975,3.8024,3.7938,3.7937,3.7955,3.8077,3.8116,3.8129,3.8291,3.8171,3.818,3.8186,3.8189,3.8567,3.8571,0,0,0,0,0,0,3.7652,3.7679,3.79,3.7909,3.7756,3.7864,3.7881,3.7934,3.8023,3.8033,3.7958,3.7953,3.8102,3.8118,3.8134,3.8298,3.8181,3.819,3.8196,3.8563,3.8568,3.8573,0,0,0,0,0,0,3.7646,3.7672,3.7894,3.7794,3.7822,3.7873,3.7933,3.7939,3.7979,3.8038,3.8047,3.7989,3.8099,3.8121,3.824,3.8303,3.8195,3.8204,3.8558,3.8565,3.8571,3.8625,0,0,0,0,0,0,3.7637,3.767,3.772,3.7795,3.7827,3.7997,3.7937,3.7945,3.7995,3.7991,3.8069,3.8079,3.8098,3.8226,3.825,3.8314,3.8211,3.8553,3.8561,3.8569,3.8618,3.8633,3.8645,0,0,0,0,0,3.7626,3.7729,3.7723,3.775,3.7891,3.8,3.8019,3.8038,3.8,3.8052,3.8091,3.8076,3.8292,3.8239,3.8265,3.8333,3.8549,3.8559,3.8568,3.8612,3.863,3.8645,0,0,0,0,0,0,3.766,3.7739,3.7733,3.7863,3.7925,3.7997,3.8062,3.8056,3.813,3.8123,3.8145,3.8163,3.8284,3.8321,3.8259,3.8469,3.8416,3.8431,3.844,3.8457,3.8471,3.8459,3.8219,0,0,0,0,0,3.7683,3.7764,3.7829,3.7938,3.7969,3.8011,3.8059,3.8069,3.8134,3.816,3.8207,3.8271,3.8354,3.8408,3.8487,3.8624,3.8641,3.8684,3.8697,3.8708,3.8721,3.8798,3.8817,3.8604,3.8604,3.8604,0,0,3.773,3.7784,3.7834,3.7946,3.7995,3.808,3.8033,3.8124,3.8187,3.8174,3.829,3.8327,3.8401,3.853,3.8589,3.8564,3.8784,3.8721,3.8729,3.8736,3.8809,3.883,3.8847,3.8611,3.861,3.8609,0,0,3.786,3.7908,3.8005,3.8056,3.8131,3.8158,3.8181,3.8255,3.8279,3.8395,3.8388,3.8464,3.8606,3.8659,3.8704,3.8857,3.8847,3.8882,3.8953,3.9027,3.9044,3.9059,3.9114,3.9133,3.8895,3.8895,3.8895,0,3.7909,3.8036,3.8055,3.8148,3.8198,3.8191,3.829,3.8338,3.8436,3.8471,3.8442,3.862,3.8669,3.8811,3.8849,3.8886,3.8914,3.8873,3.904,3.9055,3.9069,3.9122,3.9142,3.8899,3.8898,3.8898,3.8898,0,3.8093,3.8181,3.825,3.8345,3.8403,3.8498,3.8533,3.859,3.8596,3.8627,3.8747,3.8806,3.8897,3.8932,3.8938,3.9076,3.9058,3.9034,3.8981,3.9093,3.9143,3.9163,3.8904,3.8903,3.8902,3.8901,0,0,3.8246,3.8352,3.8377,3.8421,3.8504,3.8573,3.8669,3.8759,3.8807,3.8876,3.8957,3.9078,3.9057,3.9109,3.9122,3.9187,3.9305,3.9155,3.9157,3.9181,3.9461,3.9478,3.9501,3.93,3.9304,3.9307,3.9455,0,3.8384,3.8552,3.8574,3.8724,3.8806,3.8802,3.8886,3.8947,3.8979,3.9054,3.909,3.9175,3.9141,3.9172,3.9237,3.9277,3.9362,3.9267,3.9376,3.938,3.9357,3.9527,3.9545,3.9682,3.9475,3.9478,3.948,0,3.8566,3.864,3.8798,3.8872,3.8908,3.8982,3.9067,3.9139,3.9209,3.9228,3.9287,3.9292,3.9392,3.9337,3.9476,3.9411,3.9457,3.9484,3.949,3.95,3.9436,3.9542,3.9726,3.9746,3.9511,3.9509,3.9507,0,3.8662,3.8801,3.8914,3.8951,3.9041,3.9094,3.9133,3.92,3.9253,3.9328,3.9363,3.9448,3.9495,3.9562,3.959,3.9547,3.9729,3.9674,3.9747,3.9747,3.9785,3.9782,3.9979,3.9816,3.9815,3.9815,3.9815,0,3.8813,3.8909,3.8958,3.9027,3.9137,3.9162,3.9269,3.9307,3.9367,3.9445,3.9447,3.952,3.9554,3.9632,3.9655,3.9768,3.9789,3.9808,3.9812,3.9807,3.9805,3.9837,3.9828,3.9821,3.9819,3.9818,3.9817,0,3.8937,3.8973,3.9096,3.9172,3.9193,3.927,3.9335,3.9403,3.9436,3.9534,3.9558,3.9609,3.9702,3.9738,3.9851,3.9867,3.9996,3.9994,3.9972,3.9974,4.0044,4.0037,4.0268,4.03,4.0117,4.0119,4.012,0,3.903,3.9105,3.9189,3.9241,3.9283,3.9367,3.9421,3.945,3.9507,3.9594,3.9652,3.9744,3.9819,3.9968,4.0016,4.0103,4.0102,4.0178,4.0115,4.0108,4.0103,4.0098,4.0106,4.0189,4.019,4.0192,4.0193,0,3.9192,3.9207,3.9285,3.9371,3.9436,3.9505,3.9572,3.9615,3.9654,3.9718,3.9813,3.9872,3.9988,4.0081,4.0171,4.0213,4.021,4.0213,4.0234,4.0229,4.0213,4.0223,4.0003,4.0207,4.0206,4.0205,4.0204,4.0203,3.9303,3.937,3.944,3.9528,3.9582,3.9645,3.9713,3.9754,3.9834,3.9931,3.9943,4.0046,4.0116,4.0237,4.0283,4.0364,4.0344,4.0375,4.0383,4.039,4.0395,4.0201,4.0381,4.0381,4.038,4.038,4.038,0,3.9465,3.951,3.9591,3.9685,3.9755,3.9747,3.9822,3.9881,3.9971,4.0037,4.0111,4.0222,4.0312,4.0367,4.0458,4.0513,4.0514,4.0536,4.0531,4.0541,4.0408,4.038,4.0533,4.0533,4.0533,4.0533,4.0533,4.0533,3.9557,3.967,3.9694,3.9834,3.9879,3.9979,4.0022,4.0081,4.0134,4.0257,4.0332,4.0368,4.043,4.0526,4.0609,4.0623,4.0657,4.068,4.0693,4.0566,4.055,4.0535,4.0509,4.0687,4.0687,4.0819,4.0821,4.0821]},{"header":{"parameterUnit":"m.s-1","parameterCategory":1,"la1":30.2991,"la2":30.254,"lo1":-89.0895,"lo2":-89.0444,"dy":0.0017,"dx":0.0017,"nx":28,"ny":28,"refTime":"2025-12-10T09:00:00:Z","depth":0,"parameterNumber":3,"parameterNumberName":"V-component_of_WINDS"},"data":[0,0,0,0,0,0,0,0,0,0,0,0,0,0,0,0,0,0,0,0,0,0,0,0,0,0,0,0,0,0,0,0,0,0,0,0,0,0,0,0,0,0,0,0,0,0,0,0,0,0,0,0,0,0,0,0,0,0,-0.8421,-0.8421,0,-0.8426,-0.8426,-0.8426,-0.8414,-0.8414,-0.8414,-0.8413,-0.8416,-0.8417,-0.8417,0,0,0,0,0,0,0,0,0,0,0,0,0,-0.8401,-0.8401,-0.8421,-0.8421,-0.8421,-0.8426,-0.8426,-0.8426,-0.8414,-0.8414,-0.8413,-0.8413,-0.8416,-0.8417,-0.8417,0,0,0,0,0,0,0,0,0,0,0,0,0,-0.8408,-0.8402,-0.8421,-0.8416,-0.8416,-0.8426,-0.8426,-0.8426,-0.8414,-0.8414,-0.8413,-0.8413,-0.8416,-0.8417,-0.8417,-0.8432,0,0,-0.8419,-0.8419,0,0,0,0,0,0,0,0,-0.8408,-0.8409,-0.8417,-0.8416,-0.8416,-0.8419,-0.842,-0.8428,-0.8415,-0.8415,-0.8413,-0.8413,-0.8417,-0.8418,-0.842,-0.8432,-0.8432,-0.8419,-0.8419,-0.842,-0.842,0,0,0,0,0,0,0,-0.8407,-0.8408,-0.8423,-0.8417,-0.8416,-0.8413,-0.8414,-0.8421,-0.8419,-0.8415,-0.8414,-0.8415,-0.8417,-0.8419,-0.842,-0.8432,-0.8419,-0.842,-0.842,-0.842,-0.8457,-0.8458,0,0,0,0,0,0,-0.8408,-0.8408,-0.8423,-0.8423,-0.841,-0.8414,-0.8414,-0.8418,-0.8419,-0.8419,-0.8415,-0.8414,-0.8419,-0.8419,-0.842,-0.8438,-0.842,-0.842,-0.8421,-0.8457,-0.8458,-0.8458,0,0,0,0,0,0,-0.8407,-0.8409,-0.8422,-0.8415,-0.8417,-0.8415,-0.842,-0.8419,-0.8421,-0.8419,-0.8419,-0.8418,-0.8418,-0.8419,-0.8429,-0.8438,-0.8421,-0.8421,-0.8456,-0.8457,-0.8458,-0.8474,0,0,0,0,0,0,-0.8407,-0.8409,-0.8415,-0.8416,-0.8417,-0.8432,-0.842,-0.8419,-0.8422,-0.8421,-0.8422,-0.8421,-0.8418,-0.8428,-0.843,-0.8438,-0.8422,-0.8455,-0.8457,-0.8458,-0.8472,-0.8475,-0.8477,0,0,0,0,0,-0.8406,-0.8418,-0.8415,-0.8417,-0.8424,-0.8433,-0.8433,-0.843,-0.8423,-0.8429,-0.8428,-0.8421,-0.8437,-0.843,-0.8431,-0.844,-0.8455,-0.8456,-0.8458,-0.8471,-0.8475,-0.8477,0,0,0,0,0,0,-0.8417,-0.8418,-0.8415,-0.8427,-0.843,-0.8431,-0.8438,-0.8433,-0.8437,-0.8436,-0.843,-0.8431,-0.8442,-0.8442,-0.8434,-0.8455,-0.8445,-0.8446,-0.8454,-0.8458,-0.846,-0.846,-0.8422,0,0,0,0,0,-0.8421,-0.8428,-0.8428,-0.844,-0.8442,-0.8439,-0.8443,-0.844,-0.8442,-0.8443,-0.8443,-0.8445,-0.845,-0.8454,-0.8458,-0.8472,-0.8473,-0.8479,-0.8482,-0.8484,-0.8485,-0.8494,-0.8497,-0.8463,-0.8463,-0.8463,0,0,-0.8429,-0.8431,-0.8435,-0.8442,-0.8444,-0.8451,-0.844,-0.8448,-0.8454,-0.8444,-0.8454,-0.8454,-0.8456,-0.8468,-0.8474,-0.8469,-0.8495,-0.8485,-0.8487,-0.8488,-0.8495,-0.8499,-0.8501,-0.8464,-0.8464,-0.8463,0,0,-0.8448,-0.845,-0.846,-0.8463,-0.8466,-0.8465,-0.8467,-0.8469,-0.8469,-0.8479,-0.8472,-0.8478,-0.8487,-0.8489,-0.8491,-0.8513,-0.8507,-0.8514,-0.8527,-0.8535,-0.8538,-0.854,-0.8549,-0.8552,-0.8516,-0.8516,-0.8516,0,-0.8458,-0.8469,-0.8466,-0.8475,-0.8478,-0.8471,-0.8481,-0.8484,-0.8488,-0.849,-0.8485,-0.8497,-0.8497,-0.8511,-0.8516,-0.8518,-0.8521,-0.8514,-0.8538,-0.854,-0.8542,-0.855,-0.8553,-0.8517,-0.8517,-0.8517,-0.8516,0,-0.8481,-0.8489,-0.8497,-0.8503,-0.8507,-0.8517,-0.8515,-0.8519,-0.8516,-0.8516,-0.8527,-0.8527,-0.8533,-0.8535,-0.8532,-0.8549,-0.8546,-0.8539,-0.8529,-0.8547,-0.8554,-0.8557,-0.8518,-0.8518,-0.8517,-0.8517,0,0,-0.8507,-0.8512,-0.8515,-0.8518,-0.8521,-0.8527,-0.8537,-0.8543,-0.8547,-0.8551,-0.8559,-0.8567,-0.8562,-0.8564,-0.8561,-0.8568,-0.8586,-0.8561,-0.8561,-0.8566,-0.8605,-0.8611,-0.8615,-0.8582,-0.8583,-0.8583,-0.8606,0,-0.8526,-0.8543,-0.8541,-0.8558,-0.8566,-0.8559,-0.8568,-0.8571,-0.8571,-0.8577,-0.8576,-0.8583,-0.8574,-0.8576,-0.8583,-0.8582,-0.8594,-0.8581,-0.859,-0.859,-0.859,-0.8618,-0.8624,-0.8645,-0.8608,-0.8609,-0.8609,0,-0.8551,-0.8557,-0.8575,-0.8578,-0.8582,-0.8589,-0.8595,-0.8601,-0.8605,-0.8604,-0.8608,-0.8604,-0.8613,-0.8603,-0.8616,-0.8607,-0.861,-0.8611,-0.8612,-0.8613,-0.8601,-0.8621,-0.8651,-0.8655,-0.8614,-0.8613,-0.8613,0,-0.8569,-0.8581,-0.8594,-0.8596,-0.8601,-0.8607,-0.8608,-0.8612,-0.8616,-0.8621,-0.8624,-0.863,-0.8633,-0.8637,-0.8635,-0.8627,-0.8649,-0.8638,-0.8649,-0.8649,-0.8654,-0.8654,-0.8686,-0.8655,-0.8655,-0.8655,-0.8655,0,-0.8591,-0.8602,-0.8602,-0.861,-0.8622,-0.862,-0.8632,-0.8633,-0.8636,-0.8644,-0.8638,-0.8646,-0.8642,-0.8648,-0.8646,-0.8658,-0.8659,-0.8659,-0.8659,-0.866,-0.866,-0.8663,-0.8662,-0.8656,-0.8655,-0.8655,-0.8655,0,-0.8613,-0.8613,-0.8627,-0.8631,-0.8632,-0.8641,-0.8644,-0.8651,-0.8651,-0.8661,-0.8663,-0.8663,-0.8671,-0.8669,-0.8677,-0.8676,-0.8691,-0.8688,-0.869,-0.869,-0.8701,-0.8701,-0.8737,-0.8742,-0.8707,-0.8707,-0.8708,0,-0.8628,-0.8636,-0.8642,-0.8647,-0.865,-0.8659,-0.8664,-0.8661,-0.8667,-0.8672,-0.8679,-0.8687,-0.8693,-0.8706,-0.8706,-0.8712,-0.871,-0.8723,-0.8711,-0.8713,-0.8711,-0.8711,-0.8713,-0.8725,-0.8725,-0.8726,-0.8726,0,-0.8654,-0.8654,-0.8662,-0.867,-0.8676,-0.8682,-0.8688,-0.8692,-0.8691,-0.8697,-0.8706,-0.8711,-0.872,-0.8728,-0.8734,-0.8736,-0.8731,-0.873,-0.8733,-0.8735,-0.8736,-0.8736,-0.8697,-0.8729,-0.8729,-0.8728,-0.8728,-0.8728,-0.8673,-0.8681,-0.8687,-0.8696,-0.87,-0.8706,-0.8713,-0.8715,-0.8723,-0.8731,-0.8729,-0.8739,-0.8743,-0.8751,-0.8754,-0.8762,-0.8757,-0.8761,-0.8762,-0.8763,-0.8765,-0.8734,-0.8762,-0.8762,-0.8762,-0.8762,-0.8762,0,-0.8699,-0.8703,-0.8712,-0.8721,-0.8728,-0.8724,-0.873,-0.8736,-0.8746,-0.875,-0.8757,-0.8768,-0.8776,-0.8777,-0.8785,-0.8791,-0.8789,-0.8793,-0.8793,-0.8793,-0.8769,-0.8766,-0.8794,-0.8794,-0.8794,-0.8794,-0.8794,-0.8794,-0.8714,-0.8728,-0.8729,-0.8745,-0.8749,-0.876,-0.8764,-0.8769,-0.8773,-0.8786,-0.8793,-0.8794,-0.8798,-0.8806,-0.8813,-0.8813,-0.8816,-0.8821,-0.8821,-0.8798,-0.8795,-0.8792,-0.8789,-0.8822,-0.8822,-0.8845,-0.8845,-0.8845]}]]